GW6027 Weather Reports


time (UTC)temp
C
wind
direction
speed
KPH
gust
KPH
rain 1hr
cm
rain 24hr
cm
rain mn
cm
humidity
%
barometer
mb
20260507155416 17 98 1.6 8.0 0.10 0.79 0.13 73 1005.8
20260507150133 17 73 3.2 22.5 0.08 0.76 0.10 66 1006.2
20260507142508 18 173 4.8 8.0 0.00 0.69 0.03 60 1006.3
20260507135548 19 220 0.0 3.2 0.00 0.69 0.03 53 1006.3
20260507131820 20 89 0.0 1.6 0.00 0.69 0.03 55 1006.3
20260507123714 19 234 1.6 6.4 0.00 0.69 0.03 52 1006.2
20260507120314 19 283 0.0 6.4 0.00 0.69 0.03 52 1006.4
20260507112426 20 290 3.2 8.0 0.00 0.69 0.03 52 1006.6
20260507104911 20 297 3.2 11.3 0.00 0.69 0.03 50 1006.7
20260507100128 20 280 4.8 12.9 0.00 0.69 0.03 51 1006.6
20260507093542 20 283 4.8 11.3 0.00 0.69 0.03 53 1006.8
20260507085002 20 70 3.2 16.1 0.00 0.69 0.03 51 1007.0
20260507081226 20 264 6.4 12.9 0.00 0.69 0.03 51 1007.2
20260507073939 20 306 9.7 19.3 0.00 0.69 0.03 53 1007.5
20260507065344 20 171 4.8 20.9 0.00 0.69 0.03 58 1007.5
20260507062306 19 244 8.0 19.3 0.00 0.69 0.03 57 1007.5
20260507054855 18 211 19.3 22.5 0.00 0.69 0.03 59 1007.5
20260507051007 18 173 9.7 17.7 0.00 0.69 0.03 61 1007.6
20260507043939 18 233 4.8 20.9 0.00 0.69 0.03 61 1007.6
20260507035547 18 226 8.0 16.1 0.00 0.69 0.03 61 1007.7
20260507031559 17 261 9.7 19.3 0.00 0.69 0.03 66 1007.7
20260507024045 17 230 17.7 25.7 0.00 0.69 0.03 66 1007.8
20260507020754 17 210 17.7 24.1 0.00 0.69 0.03 67 1007.9
20260507013448 17 258 8.0 25.7 0.00 0.69 0.03 65 1007.9
20260507010345 17 236 14.5 29.0 0.00 0.69 0.03 64 1007.8
20260507003426 16 216 22.5 30.6 0.00 0.69 0.03 65 1007.8
20260507000518 16 211 11.3 27.4 0.00 0.69 0.03 65 1007.7
20260506232847 16 260 17.7 29.0 0.00 0.69 0.03 67 1007.7
20260506225338 16 193 16.1 27.4 0.00 0.69 0.03 67 1007.7
20260506223028 15 218 17.7 32.2 0.00 0.69 0.03 70 1007.5
20260506215943 15 209 22.5 27.4 0.00 0.69 0.03 72 1007.4
20260506211824 15 224 22.5 29.0 0.00 0.69 0.03 74 1007.4
20260506203700 15 247 17.7 32.2 0.00 0.69 0.03 76 1007.4
20260506200120 15 213 12.9 30.6 0.00 0.69 0.03 75 1007.4
20260506192419 14 243 17.7 24.1 0.00 0.69 0.03 79 1007.3
20260506185423 13 217 24.1 32.2 0.00 0.69 0.03 77 1007.3
20260506181910 13 225 16.1 27.4 0.00 0.69 0.03 80 1007.3
20260506175323 13 227 12.9 20.9 0.00 0.69 0.03 79 1007.2
20260506172252 13 250 9.7 24.1 0.00 0.69 0.03 81 1007.0
20260506164631 13 222 20.9 29.0 0.00 0.69 0.03 82 1007.3
20260506161337 13 237 14.5 24.1 0.00 0.69 0.03 82 1007.3